Location: Claflin County Park
(44.8478°N, 87.5507°W)
Time: 22:16:40
(UTC+00:00)

Cosmos 489 Rocket - Pass Details

Date: 10 December 2025
Orbit: 952 x 981 km, 74.0° (Epoch: 21 January)

Event Time Altitude Azimuth Distance (km) Brightness Sun altitude
Exits shadow 11:06:52 13° 218° (SW) 2,472 6.4 -22.2°
Maximum altitude 11:12:22 57° 295° (WNW) 1,128 4.5 -21.2°
Drops below altitude 10° 11:18:32 10° 14° (NNE) 2,707 6.8 -20.2°
Sets 11:21:07 0° 19° (NNE) 3,653 7.6 -19.7°
